Wind_Speed
109 109 109 108 106 105 105 104 103 102 102 101 101 101 102 101 101 101 102 102 103 103 104 105 106 106 107 107 107 108 109 110 110 111 112 113 114 115 116 117 118 120 121 122 123 124 124 125 125 126 126 127 127 128 129 129 130 131 131 130 129 127 126 125 124 123 121 119 116 112 107 102 97 93 89 86 83 80 76 73 69 66 62 59 56 53
106 106 106 105 104 104 104 104 103 102 102 102 102 103 103 103 104 104 104 105 105 105 106 107 107 108 109 109 110 111 112 112 114 115 116 117 118 119 120 121 122 123 123 124 125 125 125 126 126 126 127 128 128 129 130 131 131 131 130 128 127 126 125 124 122 120 118 114 110 105 100 95 91 88 85 82 80 77 73 70 67 63 60 57 54 51
105 105 105 104 104 104 104 104 104 104 104 104 104 105 105 106 107 107 108 108 109 109 110 110 111 112 113 114 115 115 116 118 118 120 120 121 122 123 124 124 125 125 125 126 126 126 126 126 127 127 128 129 130 131 131 131 130 129 127 126 125 124 123 121 119 116 113 108 103 98 94 90 87 84 82 79 77 74 71 67 64 61 58 55 52 49
105 105 106 106 106 106 107 107 107 107 107 107 108 108 109 109 110 111 112 112 113 113 114 114 115 116 116 117 118 119 120 121 122 123 124 124 125 126 126 126 126 127 127 127 127 127 127 128 129 129 130 131 131 131 130 129 127 126 125 124 123 122 120 117 114 110 106 101 96 92 88 85 83 81 78 76 74 71 68 65 61 58 55 52 50 47
108 108 109 109 109 110 110 111 111 111 111 111 111 111 111 112 112 113 114 114 115 115 116 116 116 117 117 118 119 120 121 122 123 124 125 125 126 127 127 128 128 128 128 128 129 129 130 130 131 132 132 131 130 128 127 125 124 123 123 121 120 117 114 111 107 103 98 94 90 87 84 82 80 78 76 73 71 68 65 62 59 56 53 50 48 45
112 112 112 112 113 113 114 114 114 114 114 114 114 113 113 114 114 114 114 115 115 116 116 117 117 117 118 118 119 120 121 122 123 125 126 127 129 130 131 131 131 131 131 131 132 132 132 132 132 131 130 128 127 125 124 123 121 120 119 117 114 111 108 103 99 95 92 88 86 83 81 80 78 75 73 71 68 65 62 59 56 54 51 48 46 43
116 115 115 115 115 116 116 117 117 117 117 117 117 117 117 117 117 117 117 117 117 118 119 119 120 120 121 122 123 124 125 127 128 130 132 134 135 135 135 135 134 134 133 133 133 132 132 131 130 128 127 125 123 122 120 119 117 116 114 111 107 103 99 96 92 89 86 84 82 81 79 77 75 73 70 68 65 62 60 57 54 51 49 46 44 42
119 118 118 118 118 119 119 120 121 121 121 121 121 121 121 121 121 121 121 121 122 122 123 124 125 126 127 128 129 130 132 134 136 138 139 140 139 138 137 135 134 133 132 132 131 130 129 128 127 125 123 121 119 117 115 114 112 109 106 103 99 95 92 89 86 84 82 81 79 78 77 75 73 71 68 65 62 60 57 54 52 49 47 44 42 40
121 121 121 121 122 122 123 124 124 125 125 125 125 125 125 125 126 126 126 126 126 127 127 128 130 131 132 134 135 137 139 141 142 142 141 140 138 136 134 133 131 130 129 128 127 126 125 124 122 119 117 115 113 111 109 107 104 101 98 95 91 89 86 84 82 80 79 78 77 76 75 73 71 68 66 63 60 57 55 52 50 47 45 43 41 39
124 124 124 125 125 125 126 127 128 129 129 129 129 129 129 130 130 130 131 131 132 132 133 134 136 137 139 140 141 141 141 141 140 138 136 133 131 129 128 127 126 125 124 123 121 120 118 116 114 112 110 108 106 104 101 99 96 93 91 88 86 83 82 80 79 78 77 76 75 74 72 71 69 66 63 60 57 55 52 50 47 45 43 41 39 38
128 128 128 128 129 129 130 131 132 132 133 133 134 134 134 135 135 135 136 137 137 138 139 139 140 140 140 139 137 135 132 130 127 125 123 121 120 119 119 118 117 116 115 114 113 111 109 107 105 103 101 100 98 96 94 91 89 87 85 83 81 80 79 78 77 76 75 73 72 71 70 68 66 64 61 58 55 52 50 48 46 43 41 40 38 37
134 134 134 134 134 135 135 136 136 137 138 138 138 139 139 139 139 138 139 139 139 138 137 136 134 131 128 125 122 119 116 114 112 111 110 109 109 109 108 108 107 106 105 104 103 101 100 98 97 95 94 92 91 89 87 86 84 82 81 80 78 77 76 75 75 74 73 71 70 69 68 66 64 61 58 55 53 50 48 46 44 42 40 38 37 36
139 139 139 139 139 139 139 139 139 140 139 139 139 139 139 137 136 135 133 132 130 127 124 121 118 115 112 109 106 104 103 102 102 101 101 100 100 99 99 99 98 98 97 96 95 94 92 91 90 89 88 87 85 84 83 82 80 79 78 77 76 75 74 74 73 72 71 69 68 67 65 63 61 58 56 53 50 48 46 44 42 40 39 37 36 34
139 139 139 138 138 137 137 136 136 136 135 134 133 132 130 128 126 124 121 118 115 112 109 106 104 102 100 98 97 97 96 96 96 95 95 94 93 93 93 92 92 92 91 90 89 88 87 86 85 85 84 83 82 81 80 79 78 77 76 75 74 73 72 72 71 70 69 67 66 65 63 61 58 56 53 51 48 46 44 42 41 39 37 36 35 33
136 135 134 133 132 131 130 130 129 128 127 125 124 122 120 117 115 112 109 106 104 101 99 98 96 95 94 94 93 93 93 92 92 92 91 90 89 89 89 89 88 88 87 87 86 85 84 83 82 81 80 80 79 78 77 76 75 74 74 73 72 71 71 70 69 68 67 66 64 62 60 58 56 54 51 49 46 44 42 41 39 37 36 35 33 32
130 129 128 127 126 125 124 123 122 121 119 118 116 114 112 110 108 105 103 101 99 97 96 94 93 93 92 91 91 90 90 90 90 89 88 88 87 86 86 86 86 86 85 84 83 82 81 80 79 79 78 77 76 76 75 74 73 72 71 71 70 70 69 68 67 66 65 64 62 60 58 56 54 51 49 46 44 42 41 39 38 36 35 33 32 31
125 124 123 122 121 120 119 117 116 115 114 113 112 110 109 107 105 103 101 99 98 96 94 93 92 91 91 90 89 89 89 88 88 87 87 86 85 85 84 84 84 84 83 82 81 80 79 78 77 76 75 75 74 73 72 72 71 70 70 69 68 68 67 66 65 64 63 61 60 57 55 53 51 49 47 44 42 41 39 37 36 35 34 32 31 30
120 120 119 118 118 117 115 114 113 113 112 111 110 109 107 106 104 102 101 99 97 96 94 92 91 91 90 90 89 88 87 87 87 86 85 85 84 84 83 83 83 82 81 80 79 78 77 76 75 74 73 73 72 71 70 70 69 68 68 67 67 66 65 64 63 62 61 59 57 55 53 51 49 47 45 43 41 39 37 36 35 34 33 31 31 30
118 117 117 116 116 115 114 113 112 112 111 110 109 108 107 106 104 102 101 99 97 96 94 93 92 91 91 90 89 88 87 87 86 86 85 84 84 83 82 82 81 81 80 79 78 77 75 74 73 72 72 71 70 69 68 68 67 67 66 66 65 64 64 63 62 60 59 57 55 53 51 49 47 45 43 41 39 37 36 35 34 33 32 31 30 30
116 116 115 115 115 114 113 113 112 111 111 110 109 108 107 106 104 103 101 99 98 96 95 94 94 93 92 91 90 88 87 86 86 85 85 84 83 82 81 81 80 79 79 77 76 75 74 73 72 71 70 69 68 67 66 66 65 65 65 64 63 63 62 61 59 58 56 54 52 50 48 47 45 43 41 39 37 36 35 34 33 32 31 30 30 29
115 115 115 114 114 114 113 113 112 111 110 109 109 108 107 106 105 103 102 100 99 97 96 96 95 94 92 91 90 89 87 86 86 85 84 83 83 81 80 80 79 78 77 76 75 74 72 71 70 69 68 67 66 65 65 64 64 63 63 62 62 61 60 59 57 56 54 52 50 48 46 45 43 41 39 37 36 35 33 33 32 31 30 30 29 29
115 115 115 114 114 114 113 113 112 111 110 110 109 109 108 107 106 104 103 101 100 99 98 97 96 95 93 92 91 89 87 86 86 85 84 83 82 81 79 78 78 77 76 75 73 72 71 70 69 68 67 66 65 64 63 63 62 62 61 61 60 59 58 57 55 53 52 50 48 46 45 43 41 39 38 36 35 33 32 32 31 30 30 29 29 29
115 115 115 114 114 114 113 113 112 111 110 110 109 109 108 107 106 105 103 102 101 100 99 98 97 95 94 93 91 89 88 86 85 85 84 83 82 80 79 77 77 76 75 73 72 70 69 68 67 66 65 64 63 62 62 61 61 60 59 59 58 57 56 54 53 51 49 48 46 44 43 41 39 38 36 35 34 33 32 31 30 30 29 29 28 28
115 115 115 115 114 114 113 113 112 112 111 110 110 109 108 107 106 105 103 102 101 100 99 98 97 96 94 93 91 90 88 87 85 84 83 83 81 80 78 76 75 74 73 72 70 69 68 67 66 65 64 63 62 61 60 60 59 58 58 57 56 55 54 52 51 49 47 46 44 42 41 39 38 36 35 34 33 32 31 30 30 29 29 28 28 27
115 115 115 115 115 114 114 113 112 112 111 111 110 109 108 107 106 104 103 102 101 101 100 99 98 97 95 93 92 90 88 86 85 84 83 82 81 79 77 75 74 73 72 70 69 67 66 65 64 63 62 61 60 60 59 58 58 57 56 55 54 53 52 50 48 47 45 44 42 41 39 37 36 35 34 32 32 31 30 30 29 28 28 27 27 26
116 116 116 115 115 115 114 113 113 112 111 111 110 109 108 107 106 105 104 103 102 101 100 99 98 96 95 93 92 90 88 86 84 83 82 81 80 78 76 74 73 71 70 69 67 66 65 64 63 62 61 60 59 58 57 57 56 55 54 53 52 51 49 48 46 45 44 42 40 39 37 36 35 33 32 32 31 30 30 29 28 28 27 27 26 26
116 115 115 115 115 115 114 113 113 112 111 110 110 109 107 106 105 105 104 103 101 100 99 98 97 95 94 92 91 89 87 85 84 82 81 80 79 77 75 73 71 70 69 67 66 64 63 62 61 60 59 58 58 57 56 55 54 53 52 51 50 49 47 46 45 43 42 40 39 37 36 34 33 32 31 31 30 30 29 28 28 28 27 27 26 26
115 115 114 114 114 114 113 113 112 111 111 110 109 108 107 105 105 104 103 102 100 99 98 97 95 94 92 91 90 88 86 85 83 81 80 79 78 76 74 71 70 68 67 66 64 63 62 61 60 59 58 57 56 55 54 54 52 51 50 49 48 47 45 44 43 41 40 38 37 36 34 33 32 31 31 30 30 29 29 28 28 27 27 27 26 26
113 113 113 113 113 113 112 112 111 111 110 109 108 107 105 104 103 103 102 100 99 98 97 95 94 92 91 90 88 87 85 84 82 80 79 77 76 74 72 70 68 67 65 64 63 62 60 59 58 57 56 56 55 54 53 52 51 49 48 47 46 45 44 42 41 40 38 37 36 34 33 32 31 31 30 30 29 29 28 28 28 27 27 27 26 26
112 112 111 111 111 111 111 110 110 109 108 107 106 105 104 102 101 100 99 98 97 96 95 93 92 90 89 88 87 85 84 83 81 79 77 76 75 73 70 68 67 65 64 62 61 61 59 58 57 56 55 54 53 52 51 50 49 48 47 45 44 43 42 41 39 38 37 35 34 33 32 31 30 30 29 29 29 28 28 28 28 28 27 27 27 27
110 110 110 110 110 110 109 109 108 107 106 105 104 103 102 101 99 98 97 96 95 94 92 91 90 88 87 86 85 84 83 81 79 77 75 74 73 71 69 67 66 64 62 61 60 59 58 57 55 54 53 53 52 51 49 48 47 46 45 43 42 41 40 39 38 36 35 34 33 32 31 30 30 29 29 29 29 28 28 28 28 28 27 27 27 27
108 108 108 108 108 108 107 107 106 105 104 103 102 100 99 98 97 96 95 94 92 91 90 88 87 86 85 84 83 82 81 79 77 75 74 72 71 69 67 65 64 62 60 59 58 57 56 55 54 53 52 51 50 49 48 46 45 44 43 42 40 39 38 37 36 35 34 33 32 31 31 30 30 29 29 29 29 28 28 28 28 28 28 28 28 28
106 106 106 106 106 106 105 104 103 102 101 100 99 98 97 96 95 94 93 91 90 89 87 86 85 84 83 82 81 80 79 77 76 74 72 70 69 67 65 63 62 60 59 57 56 55 54 54 53 52 51 50 48 47 46 44 43 42 41 40 39 38 37 36 35 34 33 32 32 31 30 30 29 29 29 29 29 29 28 28 28 28 28 28 28 28
103 104 104 105 104 104 103 102 101 100 99 98 96 95 95 94 93 91 90 89 87 86 85 84 83 82 81 80 79 78 77 76 74 72 70 68 67 65 63 62 60 59 57 56 55 54 53 52 51 50 50 48 47 45 44 43 41 40 39 38 37 36 36 35 34 33 32 32 31 31 30 30 29 29 29 29 29 29 28 28 28 28 28 28 28 28
101 102 102 103 102 101 100 99 98 97 96 95 94 93 92 91 90 89 87 86 85 84 83 82 81 80 79 78 77 76 75 73 72 70 68 66 65 63 62 60 58 57 56 55 53 52 51 51 50 49 48 47 45 44 42 41 40 39 38 37 36 35 34 34 33 32 32 31 31 30 30 30 29 29 29 29 29 29 28 28 28 28 27 28 28 28
99 100 100 101 100 99 97 96 95 94 93 92 91 90 89 88 87 86 84 83 82 81 80 79 78 77 76 75 75 74 73 71 70 68 66 64 63 61 60 58 57 55 54 53 52 51 50 49 48 47 46 45 43 42 40 39 38 37 36 35 35 34 33 33 32 32 31 31 31 30 30 30 30 29 29 29 29 29 28 28 28 27 27 27 27 28
97 97 98 98 97 96 94 93 92 91 90 89 88 87 86 85 84 83 82 81 80 79 78 77 76 75 74 73 72 71 70 69 67 66 64 62 61 59 58 57 55 53 52 51 50 49 48 48 47 45 44 43 41 40 39 38 37 36 35 34 34 33 33 32 32 31 31 31 30 30 30 29 29 29 29 29 29 28 28 28 27 27 27 27 27 27
94 95 95 95 94 93 91 90 89 87 87 86 85 84 83 82 81 80 79 78 77 77 76 75 74 73 72 71 70 69 68 67 65 63 62 60 59 57 56 54 53 51 50 49 48 47 47 46 45 43 42 41 40 38 37 36 35 34 34 33 33 32 32 32 31 31 31 30 30 30 29 29 29 29 28 28 28 28 28 28 27 27 27 27 27 27
92 92 92 91 91 89 88 87 85 84 84 83 82 81 80 79 78 77 77 76 75 74 73 72 71 70 69 68 68 67 66 64 63 61 59 58 57 55 54 52 51 49 48 47 46 46 45 44 43 42 40 39 38 37 36 35 34 34 33 32 32 32 31 31 31 30 30 30 30 29 29 29 28 28 28 28 28 28 28 28 27 27 27 27 27 27
89 89 88 88 87 86 85 83 82 81 80 79 79 78 77 76 75 75 74 73 72 71 71 69 68 67 67 66 65 64 63 62 60 59 57 56 55 53 52 50 49 48 46 46 45 44 43 42 41 40 39 38 36 36 35 34 34 33 32 32 32 31 31 31 30 30 30 29 29 29 28 28 28 28 28 27 28 28 28 28 28 27 27 27 27 27
86 86 85 85 83 82 81 80 79 78 77 76 75 75 74 73 73 72 71 71 70 69 68 67 66 65 64 64 63 62 61 59 58 56 55 54 53 51 50 48 47 46 45 44 43 42 41 40 39 38 37 36 35 35 34 34 33 33 32 31 31 31 30 30 30 29 29 29 29 28 28 28 27 27 27 27 27 27 27 27 27 27 27 27 27 27
83 83 82 81 80 79 78 77 76 75 74 73 72 72 71 71 70 70 69 68 67 66 65 64 63 63 62 62 61 60 58 57 55 54 53 52 51 49 48 46 45 44 43 42 41 40 40 39 38 37 36 35 34 34 34 33 33 32 32 31 31 30 30 30 29 29 29 29 28 28 28 27 27 27 27 27 27 27 27 27 27 27 27 27 27 27
80 79 78 77 76 76 75 74 73 72 71 70 69 69 68 68 67 67 66 65 65 64 63 62 61 61 60 60 59 57 56 54 53 52 51 50 48 47 46 44 43 42 41 40 40 39 38 37 36 36 35 34 34 33 33 33 33 32 31 31 30 30 29 29 29 29 29 28 28 28 28 27 27 27 27 27 27 27 27 27 27 27 27 27 27 28
76 75 75 74 73 72 71 71 70 69 68 67 67 66 66 65 64 64 63 62 62 61 60 59 59 59 58 58 56 55 53 52 51 50 49 48 46 45 44 43 42 41 40 39 38 37 37 36 35 35 34 34 33 33 33 33 33 32 31 31 30 30 29 29 28 28 28 28 28 28 28 28 27 27 27 27 27 27 27 27 27 28 28 28 28 28
73 72 71 70 69 69 68 67 67 66 65 64 64 63 63 62 62 61 60 60 59 58 58 57 57 57 56 55 54 52 51 50 49 48 47 46 44 43 42 41 40 39 38 38 37 36 36 35 35 34 34 33 33 33 33 33 33 32 31 30 30 29 29 29 28 28 28 28 28 28 28 28 27 27 27 27 27 27 27 27 28 28 28 28 29 29
69 68 67 67 66 66 65 64 64 63 62 62 61 61 60 59 59 58 58 57 56 56 56 55 55 54 54 53 52 50 49 49 48 46 45 44 42 41 40 39 39 38 37 36 36 35 35 34 34 33 33 33 33 33 33 33 32 32 31 30 30 30 29 29 29 28 28 28 28 28 28 28 28 28 28 28 28 28 28 28 28 28 29 29 29 29
66 65 65 64 64 63 63 62 61 60 60 59 59 58 57 57 56 56 55 55 54 54 54 53 53 52 52 51 50 49 48 47 46 45 43 42 40 39 38 38 38 37 36 35 35 34 34 34 33 33 33 33 33 33 33 33 32 32 31 30 30 30 30 29 29 29 29 28 28 28 29 29 29 29 29 28 28 28 28 28 29 29 29 29 29 30
63 62 62 62 62 61 60 59 59 58 57 57 56 56 55 55 54 54 53 53 53 52 52 52 51 50 49 48 48 47 46 45 44 43 41 40 38 38 37 37 36 36 35 35 34 34 33 33 33 33 33 33 33 33 33 32 32 31 31 30 30 30 30 29 29 29 29 29 29 29 29 29 29 29 29 29 29 29 29 29 29 29 29 29 29 30
61 60 61 60 60 59 58 57 56 56 55 55 54 54 53 52 52 52 51 51 51 51 50 50 49 48 47 47 46 45 44 44 42 41 39 38 37 36 36 36 35 35 34 34 34 33 33 33 33 33 33 33 33 33 33 32 32 31 31 30 30 30 30 30 29 29 29 29 29 29 29 29 29 29 29 29 29 29 29 29 29 29 29 29 29 30
59 59 59 58 58 57 56 55 54 53 53 52 52 51 51 50 50 50 50 49 49 49 48 48 47 46 46 45 44 44 43 42 41 39 38 36 35 35 35 35 34 34 34 33 33 33 33 33 33 33 33 33 33 33 33 32 32 31 31 31 30 30 30 30 29 29 29 28 29 29 29 29 29 29 29 29 29 29 29 29 29 29 29 29 30 30
57 57 57 56 55 54 53 52 51 51 51 50 50 49 49 49 49 48 48 48 48 47 46 46 45 45 44 44 43 42 41 40 39 38 36 35 34 34 34 34 34 33 33 33 33 33 33 33 33 33 33 33 33 32 32 32 32 32 31 31 31 30 30 29 29 29 29 29 29 29 29 29 29 29 29 29 29 29 29 29 29 29 30 30 30 31
Wind_Direction
285 285 286 286 286 287 287 287 286 286 286 286 286 287 287 287 287 287 287 287 287 287 287 288 288 289 289 290 290 291 291 292 292 292 292 293 293 293 293 293 293 294 294 294 295 295 296 297 297 298 298 299 299 299 299 300 300 300 301 301 302 303 304 304 305 306 307 307 308 308 308 308 309 309 309 309 309 309 309 309 309 308 307 306 305 303
285 285 286 286 286 286 285 285 285 285 284 284 285 285 285 285 285 285 286 286 286 286 286 287 287 288 288 289 289 290 290 290 290 290 291 291 291 291 292 292 292 293 293 294 294 295 295 296 296 297 297 297 298 298 298 298 299 300 300 301 302 303 304 304 305 306 306 307 307 307 307 308 308 308 308 308 308 308 308 308 308 307 306 304 303 302
284 284 284 284 283 283 283 283 283 282 282 282 282 282 283 283 283 283 284 284 284 285 285 286 286 287 287 288 288 289 289 289 289 290 290 290 290 291 291 291 292 292 293 293 294 294 295 295 295 296 296 296 296 297 297 298 299 299 300 301 302 303 303 304 305 305 306 306 306 306 307 307 307 307 307 307 308 307 307 307 306 305 304 303 301 300
281 281 281 281 281 280 280 280 280 280 280 280 280 280 280 281 281 282 282 283 283 284 284 285 285 286 287 287 288 288 289 289 289 289 290 290 290 291 291 291 291 292 292 292 293 293 293 293 294 294 295 295 296 296 297 298 298 299 300 301 302 302 303 304 304 305 305 305 305 306 306 306 306 306 307 307 307 307 306 306 305 304 303 301 300 298
279 279 279 279 279 279 279 279 279 279 279 279 279 279 279 279 280 280 281 281 282 283 283 284 284 285 285 286 286 287 287 288 288 289 289 289 290 290 290 290 290 290 290 291 291 291 292 292 293 294 294 295 296 296 297 298 298 299 300 301 301 302 303 303 304 304 304 305 305 305 305 305 306 306 306 306 306 306 305 305 304 302 301 300 298 296
279 279 278 278 278 278 278 278 278 278 278 278 278 278 278 279 279 279 280 280 281 281 282 282 283 283 284 284 284 285 285 286 286 287 287 288 288 288 288 288 288 289 289 289 290 290 291 292 293 294 295 295 296 296 297 298 298 299 300 300 301 302 302 303 303 303 304 304 304 305 305 305 305 305 305 305 305 305 304 303 302 301 299 298 296 294
279 279 278 278 278 278 278 278 278 278 278 278 278 278 278 278 279 279 279 280 280 281 281 282 282 283 283 283 284 284 285 285 286 286 287 288 288 288 288 288 288 288 288 289 289 290 291 292 293 294 295 295 296 296 297 297 298 299 299 300 301 301 302 302 302 303 303 304 304 304 304 304 304 304 305 305 304 304 303 302 300 299 297 296 294 292
278 278 278 278 278 278 278 278 278 278 278 278 278 278 278 279 279 279 279 280 280 281 281 282 282 283 283 284 284 285 285 286 287 287 288 288 288 288 288 288 288 288 289 289 290 291 292 293 293 294 294 295 295 296 296 297 298 298 299 300 300 301 301 301 302 302 303 303 303 303 303 303 304 304 304 304 303 302 301 300 299 297 296 294 292 290
277 277 277 277 277 277 277 278 278 278 278 278 278 278 279 279 279 279 280 280 281 281 281 282 283 283 284 284 285 285 286 286 287 287 287 288 288 288 288 288 288 289 289 290 290 291 292 292 293 293 294 294 295 296 296 297 298 298 299 299 300 300 301 301 301 302 302 302 303 303 303 303 303 303 303 303 302 301 299 298 297 295 294 292 289 287
277 277 277 277 277 277 277 278 278 278 278 279 279 279 279 279 279 280 280 281 281 281 282 282 283 283 284 284 285 285 286 286 286 286 286 287 287 287 287 288 288 289 289 290 290 291 291 292 292 293 294 294 295 296 296 297 298 298 299 299 299 300 300 301 301 301 302 302 302 302 302 302 302 302 302 301 300 299 298 296 295 293 291 289 287 285
278 278 278 278 278 278 278 278 279 279 279 279 279 280 280 280 280 280 281 281 282 282 283 283 284 284 285 285 285 286 286 286 286 286 286 286 287 287 288 288 288 289 289 290 290 291 291 292 292 293 294 294 295 296 296 297 298 298 298 299 299 300 300 300 301 301 301 301 301 301 301 301 301 301 301 300 299 297 296 294 293 291 289 287 285 282
279 279 279 280 280 280 280 280 280 280 280 281 281 281 281 281 281 282 282 282 283 283 284 284 285 285 286 286 286 286 287 287 287 287 287 287 288 288 288 289 289 289 290 290 291 291 292 292 293 293 294 295 295 296 297 297 297 298 298 299 299 299 300 300 300 300 300 300 300 300 300 300 300 300 299 298 297 295 294 292 291 289 287 285 283 280
281 281 281 281 281 281 281 281 281 282 282 282 282 282 282 283 283 283 284 284 284 285 285 286 286 286 287 287 287 287 288 288 288 288 288 288 289 289 289 290 290 290 290 291 291 292 292 293 293 294 294 295 296 296 297 297 297 298 298 298 299 299 299 299 299 299 299 300 300 300 300 300 299 299 298 297 295 293 292 290 289 287 285 283 281 278
282 282 282 283 283 283 283 283 283 283 283 284 284 284 284 285 285 285 286 286 286 286 287 287 287 287 288 288 288 288 289 289 289 289 289 289 289 290 290 290 290 291 291 291 292 292 293 293 294 294 295 295 296 296 297 297 297 298 298 298 298 298 298 298 298 299 299 299 299 299 299 298 298 297 296 295 293 291 290 288 286 285 283 281 278 275
284 284 284 284 284 284 284 285 285 285 285 285 286 286 286 286 286 287 287 287 287 288 288 288 288 288 289 289 289 289 289 289 289 290 290 290 290 290 291 291 291 291 291 292 292 293 293 293 294 294 295 295 296 296 296 297 297 297 297 298 298 298 298 298 298 298 298 298 298 298 298 297 296 295 294 292 291 289 288 286 284 283 281 278 276 273
284 285 285 285 285 285 286 286 286 286 286 287 287 287 287 287 288 288 288 288 289 289 289 289 290 290 290 290 290 290 290 290 290 290 290 291 291 291 291 291 291 291 292 292 292 293 293 294 294 294 295 295 295 296 296 296 296 297 297 297 297 297 297 297 297 297 297 297 297 297 296 295 294 293 292 290 289 287 286 284 282 280 278 276 273 269
285 285 285 285 286 286 286 286 286 287 287 287 287 288 288 288 289 289 289 289 290 290 290 291 291 291 291 291 291 290 290 290 291 291 291 291 291 291 291 291 291 291 292 292 292 293 293 294 294 294 295 295 295 295 295 296 296 296 296 296 296 296 296 296 296 296 296 296 296 296 295 294 292 291 290 288 287 285 284 282 280 278 276 273 269 266
285 285 285 285 286 286 286 286 287 287 287 287 288 288 288 289 289 290 290 290 291 291 291 292 292 292 291 291 291 291 291 291 291 291 291 291 291 291 291 291 291 291 292 292 292 293 293 293 294 294 294 294 294 295 295 295 295 295 295 295 295 295 295 295 295 295 295 295 295 294 293 292 290 289 288 286 285 283 281 280 278 276 273 270 266 262
285 285 285 285 285 286 286 286 287 287 287 287 288 288 289 289 290 290 291 291 291 292 292 292 292 292 292 292 291 291 291 291 291 291 291 291 291 291 291 291 291 291 292 292 292 293 293 293 293 294 294 294 294 294 294 294 294 294 294 294 294 294 294 295 295 295 294 294 294 292 291 290 288 287 285 284 283 281 279 277 275 273 270 267 263 259
284 285 285 285 285 285 286 286 286 287 287 287 288 288 289 289 290 290 291 291 292 292 292 292 292 292 292 291 291 291 291 291 291 291 291 291 291 291 291 291 291 291 292 292 292 293 293 293 293 293 293 294 294 294 294 294 294 294 294 294 294 294 294 294 294 293 293 293 292 290 289 288 286 285 283 282 281 279 277 275 273 270 267 264 260 256
284 284 284 284 285 285 286 286 286 287 287 287 288 288 289 289 290 290 291 291 292 292 292 292 292 292 291 291 291 291 291 291 291 291 291 291 291 291 291 291 291 291 291 292 292 292 293 293 293 293 293 293 293 293 293 293 293 293 293 293 293 293 293 293 293 292 292 291 290 288 287 285 284 283 282 280 279 277 275 273 270 267 264 260 257 254
283 283 284 284 284 285 285 286 286 286 287 287 287 288 288 289 289 290 290 291 291 291 291 291 291 291 291 291 291 291 291 291 291 291 291 291 290 290 290 290 291 291 291 291 292 292 292 293 293 293 293 293 293 293 293 293 293 292 292 292 292 292 292 292 291 291 290 289 288 286 285 283 282 281 280 278 277 275 273 270 267 264 260 257 254 251
283 283 283 284 284 284 285 285 285 286 286 287 287 287 288 288 288 289 289 290 290 290 290 290 290 290 290 290 290 291 291 290 290 290 290 290 290 290 290 290 290 290 291 291 291 292 292 292 292 292 292 292 293 292 292 292 292 292 292 292 291 291 291 291 290 289 288 287 285 284 283 281 280 279 278 276 274 272 270 267 264 260 257 254 251 248
282 282 283 283 283 284 284 284 285 285 285 286 286 286 287 287 287 288 288 289 289 289 289 289 289 289 289 290 290 290 290 290 289 289 289 289 289 289 289 289 290 290 290 291 291 291 291 291 291 292 292 292 292 292 292 291 291 291 291 291 290 290 290 289 288 287 286 285 283 282 281 279 278 277 276 274 272 269 267 264 260 257 254 250 248 246
281 282 282 282 282 283 283 283 284 284 284 285 285 285 286 286 286 287 287 287 287 287 288 288 288 288 288 289 289 289 289 289 289 288 288 288 288 288 289 289 289 289 290 290 290 290 291 291 291 291 291 291 291 291 291 291 290 290 290 290 289 289 288 287 286 285 284 282 281 280 279 278 276 275 274 272 269 267 263 260 256 253 250 247 245 242
281 281 281 281 281 282 282 282 283 283 283 284 284 284 285 285 285 285 286 286 286 286 286 287 287 287 287 287 287 287 287 288 288 287 287 287 288 288 288 288 289 289 289 289 290 290 290 290 290 290 290 290 290 290 290 290 289 289 289 289 288 287 287 286 284 283 282 280 279 278 277 276 275 273 271 269 266 263 260 256 253 250 246 244 241 239
280 280 280 280 280 281 281 281 282 282 282 282 283 283 283 284 284 284 284 284 285 285 285 285 286 286 286 286 286 286 286 287 287 286 286 287 287 287 287 288 288 288 288 289 289 289 289 290 290 290 290 290 290 289 289 289 289 288 288 287 287 286 285 284 282 281 280 278 277 276 275 274 273 271 269 266 263 260 256 252 249 246 243 240 237 235
279 279 279 279 279 280 280 280 280 281 281 281 282 282 282 282 282 282 283 283 283 284 284 284 284 284 284 285 285 285 285 285 285 285 285 286 286 286 287 287 287 287 288 288 288 288 289 289 289 289 289 289 289 288 288 288 287 287 286 286 285 284 283 281 280 279 278 276 275 274 273 272 271 269 266 263 260 256 253 249 245 242 239 236 234 231
278 278 278 278 278 278 279 279 279 280 280 280 280 281 281 281 281 281 281 282 282 282 282 283 283 283 283 283 283 284 284 284 284 284 284 285 285 285 286 286 286 287 287 287 288 288 288 288 288 288 288 288 288 287 287 287 286 286 285 284 283 282 280 279 278 277 276 275 274 273 272 270 268 266 263 260 257 253 249 246 242 239 237 234 231 229
277 277 277 277 277 277 278 278 278 278 279 279 279 280 280 280 280 280 280 281 281 281 281 281 281 281 282 282 282 282 282 282 283 283 283 283 284 284 285 285 286 286 286 287 287 287 287 287 287 287 287 287 286 286 286 285 285 284 283 282 281 279 278 277 276 275 274 273 272 271 269 268 266 263 260 257 253 249 246 243 240 237 234 232 229 227
276 276 276 276 276 276 277 277 277 277 278 278 278 278 279 279 279 279 279 279 279 279 280 280 280 280 280 280 280 280 281 281 282 282 282 282 283 283 284 284 285 285 286 286 286 287 287 287 287 286 286 285 285 285 284 284 283 282 281 280 278 277 276 275 273 272 271 271 270 268 267 265 263 260 257 254 250 247 244 241 238 235 233 230 228 226
276 276 275 275 275 275 276 276 276 276 277 277 277 277 277 277 278 278 278 278 278 278 278 278 278 278 279 279 279 279 279 280 280 280 281 281 282 282 283 283 284 284 285 285 285 286 286 286 286 285 285 284 284 283 283 282 281 280 279 277 276 275 273 272 271 270 269 268 267 266 264 262 260 257 254 251 247 244 242 239 237 234 232 230 228 226
275 275 275 275 274 275 275 275 275 275 276 276 276 276 276 276 276 277 277 277 277 277 277 277 277 277 277 277 277 277 278 278 279 279 280 280 281 281 282 283 283 284 284 284 284 285 285 285 285 284 283 283 282 282 281 280 279 278 276 275 274 272 271 270 269 268 267 266 265 263 261 260 257 254 251 248 245 243 240 238 236 234 232 230 228 227
274 274 274 274 274 274 274 274 274 274 275 275 275 275 275 275 275 275 276 276 276 276 275 275 275 275 275 276 276 276 276 277 277 278 278 279 280 280 281 282 282 283 283 283 284 284 283 283 283 283 282 282 281 280 279 278 277 276 274 273 271 270 269 268 267 266 265 264 262 261 259 257 254 252 249 246 243 241 239 237 236 234 232 230 229 227
273 273 273 273 273 273 273 273 273 273 274 274 274 274 274 274 274 274 274 274 274 274 274 274 274 274 274 274 274 274 275 275 276 277 277 278 279 280 280 281 281 282 282 282 283 283 282 282 281 281 281 280 279 278 277 276 275 273 272 270 269 268 267 266 265 264 263 261 260 258 257 255 252 250 247 244 242 240 238 237 235 234 232 231 230 228
272 272 272 272 272 272 272 272 272 272 272 273 273 273 273 273 273 273 273 273 273 272 272 272 272 272 272 272 272 273 273 274 275 276 276 277 278 278 279 280 280 281 281 281 281 281 281 280 280 279 279 278 277 276 275 274 272 271 269 268 267 266 265 264 263 262 260 259 258 256 255 253 251 248 246 244 242 240 238 237 235 234 233 232 230 230
271 271 271 271 271 271 271 271 271 271 271 271 271 271 271 271 272 271 271 271 271 270 270 270 270 270 270 271 271 271 272 273 273 274 275 276 277 277 278 278 279 279 280 280 280 279 279 278 278 278 277 276 275 274 273 271 270 268 267 266 265 263 262 262 261 259 258 257 256 254 253 251 249 247 245 243 241 240 238 237 236 234 233 232 231 231
270 270 270 270 270 270 270 270 270 270 270 270 270 270 270 270 270 270 269 269 269 268 268 268 268 268 269 269 269 270 271 271 272 273 274 275 275 276 276 277 278 278 278 278 278 278 277 277 276 276 275 274 272 271 270 269 267 266 264 263 262 261 260 259 258 257 256 255 253 252 251 249 248 246 244 243 241 240 238 237 236 235 234 233 232 232
269 268 269 269 269 269 269 269 269 269 269 269 269 269 269 268 268 268 267 267 266 266 266 266 266 266 267 267 268 268 269 270 271 272 273 274 274 275 275 276 276 277 277 276 276 276 275 275 274 274 273 271 270 269 267 266 264 263 262 261 260 259 258 257 256 255 253 252 251 250 248 247 246 245 244 242 241 239 238 238 237 236 235 234 234 233
268 267 267 268 268 268 268 268 268 268 268 267 267 267 267 266 266 265 265 264 264 264 264 264 264 265 265 265 266 267 268 269 270 271 272 272 273 273 274 275 275 275 275 274 274 274 273 273 272 271 270 269 268 266 265 263 262 261 259 258 257 256 255 255 254 253 251 250 248 247 246 245 244 243 242 241 240 239 238 238 237 236 236 235 235 235
267 267 267 267 267 267 267 267 267 266 266 266 265 265 264 264 263 263 262 262 262 262 262 262 262 263 263 264 264 265 266 267 268 269 270 271 272 272 273 273 273 273 273 273 272 272 271 270 270 269 268 266 265 264 263 261 260 259 257 256 255 254 253 252 251 250 248 247 246 244 244 243 242 241 241 240 239 238 238 237 237 237 236 236 236 237
266 266 266 266 266 266 266 265 265 265 265 264 263 263 262 261 261 260 260 260 260 260 260 260 260 261 261 262 263 264 265 266 267 268 269 269 270 271 271 272 271 271 271 271 270 269 269 268 267 266 265 264 263 261 260 259 258 256 255 253 252 251 250 249 248 247 245 244 243 242 241 240 240 240 239 239 238 237 237 237 237 237 236 237 237 237
265 265 265 265 265 265 264 264 264 263 263 262 261 260 260 259 258 258 258 257 257 257 258 258 258 259 259 260 261 262 264 265 265 266 267 268 269 269 270 270 269 269 269 268 268 267 266 265 264 263 262 261 260 259 258 257 256 254 253 251 250 248 246 245 245 244 242 241 240 239 239 238 238 238 237 237 237 236 236 236 236 236 236 236 237 237
264 264 264 264 263 263 263 262 262 261 260 259 259 258 257 257 256 256 255 255 255 255 255 255 256 257 258 259 260 261 262 263 264 265 266 266 267 267 268 268 268 267 266 266 265 264 264 263 262 261 260 259 257 256 255 254 253 252 251 249 247 245 243 242 242 241 240 239 238 237 237 236 236 236 236 236 235 235 235 235 235 235 235 236 236 237
263 263 262 262 262 261 261 260 259 258 258 257 256 255 255 254 253 253 253 253 253 253 253 253 254 255 256 257 258 259 260 261 262 263 264 265 265 266 266 266 265 265 264 263 262 261 261 260 259 258 257 256 254 253 253 252 251 250 249 247 245 243 241 240 239 238 236 236 235 235 235 234 234 234 234 234 234 234 234 234 235 235 235 236 236 237
262 261 261 260 259 259 258 257 257 256 255 254 253 253 252 251 251 250 250 250 250 250 250 251 252 253 254 255 257 258 258 260 260 261 262 263 263 263 263 263 263 262 261 261 260 259 258 257 256 255 254 253 252 251 250 249 248 247 246 244 242 240 239 238 236 235 234 234 233 233 233 233 233 233 233 233 233 233 234 234 234 235 236 236 237 238
260 259 258 258 257 256 255 254 254 253 252 251 250 250 249 248 248 248 247 247 247 248 248 249 250 251 253 254 255 256 257 258 259 260 260 261 261 261 261 260 260 260 259 258 257 256 255 255 254 253 251 250 249 249 248 247 246 244 243 241 240 238 236 235 234 234 233 233 232 232 232 232 232 232 233 233 233 233 234 234 235 236 236 237 238 239
257 257 256 255 254 253 252 252 251 250 249 248 248 247 246 246 245 245 245 245 245 245 246 247 248 250 251 252 253 254 255 256 257 258 258 258 258 258 258 258 257 257 256 255 254 254 253 252 251 250 249 248 247 247 246 245 243 242 241 239 237 236 234 234 233 233 232 232 232 232 232 232 232 232 233 233 234 234 235 235 236 237 238 239 240 241
255 254 253 252 252 251 250 249 248 247 246 246 245 244 244 243 242 242 242 242 243 244 244 246 247 248 249 250 251 252 253 254 255 256 256 256 256 255 255 255 254 254 253 253 252 251 250 249 248 248 247 246 245 244 243 242 241 240 238 237 235 234 233 233 233 232 232 232 232 232 232 233 233 234 234 235 235 236 236 237 238 239 239 240 242 243
252 251 250 250 250 249 248 247 246 245 244 243 242 241 241 240 240 239 240 240 241 242 243 244 245 246 247 248 249 250 251 252 253 253 254 253 253 252 252 252 252 251 251 250 249 249 248 247 246 246 245 244 244 243 241 240 239 237 236 235 234 233 232 232 232 232 232 232 232 233 233 234 235 235 236 237 237 238 238 239 240 240 241 242 244 245
249 249 248 248 247 246 245 244 242 241 240 240 239 238 237 237 237 237 237 238 239 240 241 242 243 244 245 246 247 248 249 250 251 251 251 251 250 250 249 249 249 248 248 248 247 246 246 245 245 244 244 243 242 241 240 238 237 236 234 234 233 233 232 232 232 232 232 233 233 234 234 235 236 236 237 238 239 239 240 241 241 242 243 244 245 246
Height
10560 10557 10556 10556 10556 10555 10553 10552 10552 10552 10550 10548 10547 10547 10546 10546 10545 10545 10543 10543 10542 10541 10539 10537 10536 10535 10533 10532 10531 10530 10528 10527 10525 10524 10523 10521 10520 10519 10518 10516 10515 10513 10511 10510 10508 10506 10504 10502 10500 10498 10496 10494 10491 10490 10488 10485 10483 10481 10480 10478 10475 10473 10471 10470 10467 10465 10463 10460 10458 10456 10453 10450 10447 10445 10441 10439 10436 10435 10433 10431 10429 10428 10426 10425 10423 10422
10552 10551 10550 10550 10549 10548 10546 10545 10545 10545 10545 10543 10541 10541 10541 10540 10539 10538 10537 10537 10536 10535 10534 10533 10531 10530 10529 10528 10527 10526 10525 10523 10521 10520 10518 10516 10515 10514 10513 10511 10510 10508 10506 10504 10501 10500 10498 10496 10494 10492 10490 10488 10486 10484 10481 10480 10478 10476 10473 10471 10470 10468 10465 10463 10461 10459 10456 10454 10452 10450 10448 10445 10441 10439 10436 10434 10431 10430 10428 10426 10425 10423 10421 10420 10419 10418
10546 10545 10543 10543 10543 10543 10541 10538 10538 10538 10538 10538 10536 10536 10535 10535 10533 10532 10531 10531 10531 10530 10529 10528 10527 10526 10525 10523 10522 10521 10520 10518 10516 10515 10513 10511 10510 10508 10506 10505 10503 10501 10500 10497 10495 10493 10491 10490 10488 10486 10485 10483 10480 10478 10476 10474 10471 10470 10467 10465 10463 10461 10460 10458 10455 10453 10450 10448 10446 10444 10441 10439 10436 10433 10431 10429 10426 10425 10423 10421 10420 10418 10417 10416 10415 10414
10541 10541 10538 10536 10536 10536 10535 10533 10532 10531 10531 10531 10531 10531 10530 10529 10528 10526 10526 10526 10525 10524 10523 10522 10522 10521 10520 10518 10517 10515 10514 10512 10510 10508 10506 10505 10503 10501 10500 10498 10496 10495 10493 10491 10489 10487 10485 10484 10482 10481 10479 10476 10475 10472 10470 10468 10466 10463 10461 10459 10457 10455 10453 10451 10448 10446 10443 10441 10440 10437 10435 10433 10431 10428 10426 10424 10421 10420 10418 10416 10415 10414 10413 10411 10411 10410
10536 10535 10534 10532 10531 10530 10527 10526 10525 10525 10524 10523 10524 10523 10523 10522 10521 10520 10519 10518 10518 10517 10516 10515 10515 10515 10514 10513 10511 10509 10507 10505 10503 10501 10499 10498 10496 10495 10493 10491 10490 10488 10486 10485 10483 10481 10480 10478 10476 10475 10473 10470 10468 10466 10463 10461 10459 10457 10455 10453 10451 10449 10447 10445 10442 10440 10437 10435 10433 10431 10429 10427 10425 10423 10421 10419 10417 10415 10413 10412 10411 10410 10408 10408 10406 10406
10527 10528 10528 10526 10524 10522 10520 10518 10517 10516 10516 10516 10515 10515 10515 10515 10514 10513 10511 10511 10510 10510 10509 10508 10508 10508 10507 10506 10505 10503 10501 10499 10496 10495 10493 10491 10490 10488 10486 10485 10483 10481 10480 10478 10476 10475 10473 10471 10470 10468 10466 10463 10461 10459 10457 10455 10453 10451 10448 10446 10445 10443 10441 10438 10436 10433 10431 10429 10427 10425 10423 10421 10420 10418 10416 10415 10412 10410 10409 10408 10406 10405 10404 10403 10403 10402
10518 10519 10519 10518 10516 10514 10512 10510 10509 10508 10507 10507 10506 10506 10506 10506 10506 10505 10504 10503 10503 10503 10502 10501 10500 10500 10499 10498 10497 10496 10494 10492 10490 10488 10486 10484 10483 10481 10479 10477 10475 10474 10472 10471 10469 10468 10466 10465 10463 10461 10458 10456 10454 10452 10450 10448 10446 10445 10442 10440 10439 10437 10435 10433 10430 10428 10425 10423 10421 10419 10417 10415 10414 10413 10411 10410 10408 10406 10405 10403 10402 10401 10400 10400 10399 10398
10510 10510 10510 10510 10509 10507 10505 10502 10500 10500 10499 10499 10498 10497 10497 10497 10497 10496 10496 10496 10496 10496 10495 10494 10493 10491 10490 10490 10489 10488 10485 10483 10481 10479 10477 10475 10473 10471 10470 10468 10467 10465 10464 10463 10461 10460 10459 10457 10455 10453 10451 10449 10447 10446 10444 10442 10440 10438 10436 10434 10433 10431 10428 10426 10424 10422 10420 10418 10416 10413 10411 10410 10408 10408 10406 10405 10403 10401 10400 10399 10398 10397 10396 10396 10395 10395
10502 10502 10501 10501 10501 10500 10498 10495 10491 10490 10490 10491 10491 10489 10488 10488 10488 10487 10487 10488 10488 10488 10488 10487 10485 10483 10481 10481 10480 10479 10477 10475 10472 10470 10468 10466 10465 10463 10461 10460 10458 10457 10456 10455 10453 10452 10451 10450 10448 10446 10445 10443 10441 10439 10437 10435 10433 10431 10430 10428 10426 10425 10423 10421 10418 10416 10415 10413 10410 10408 10406 10405 10403 10402 10401 10400 10398 10397 10396 10395 10394 10393 10392 10391 10391 10391
10491 10492 10493 10492 10491 10491 10490 10487 10483 10480 10480 10481 10482 10481 10480 10480 10480 10479 10478 10478 10478 10479 10480 10479 10477 10475 10473 10472 10471 10470 10468 10466 10463 10461 10459 10458 10456 10454 10452 10451 10450 10449 10448 10447 10446 10445 10444 10443 10441 10440 10438 10436 10434 10432 10431 10429 10427 10425 10423 10421 10420 10418 10416 10415 10413 10411 10409 10407 10405 10403 10401 10400 10398 10397 10396 10395 10394 10393 10391 10390 10390 10389 10388 10388 10388 10388
10481 10481 10482 10483 10482 10481 10480 10478 10476 10473 10471 10471 10471 10471 10470 10470 10471 10471 10471 10470 10468 10468 10469 10470 10468 10466 10465 10463 10461 10459 10457 10456 10454 10451 10450 10448 10448 10446 10445 10443 10442 10441 10440 10440 10438 10438 10437 10436 10434 10433 10431 10429 10428 10426 10425 10423 10421 10419 10417 10415 10414 10412 10411 10409 10407 10406 10404 10402 10400 10398 10396 10395 10394 10393 10391 10390 10390 10388 10387 10386 10386 10385 10385 10385 10384 10384
10470 10470 10471 10472 10472 10471 10470 10468 10466 10464 10462 10461 10460 10460 10458 10458 10460 10461 10463 10461 10459 10458 10459 10458 10458 10456 10455 10454 10451 10449 10447 10446 10444 10443 10441 10440 10440 10438 10437 10436 10435 10434 10433 10432 10431 10431 10430 10429 10428 10426 10424 10423 10421 10420 10418 10416 10415 10413 10411 10410 10408 10406 10405 10403 10401 10400 10398 10397 10395 10393 10392 10390 10389 10388 10387 10386 10385 10384 10383 10382 10381 10381 10381 10381 10380 10380
10458 10459 10460 10460 10460 10460 10458 10457 10455 10453 10451 10450 10450 10449 10448 10447 10448 10450 10451 10451 10450 10449 10450 10449 10448 10446 10445 10445 10443 10441 10438 10436 10435 10434 10433 10433 10432 10431 10430 10429 10428 10426 10426 10425 10425 10424 10423 10423 10421 10420 10418 10416 10415 10413 10411 10410 10408 10406 10405 10403 10402 10400 10399 10398 10396 10395 10393 10392 10390 10389 10387 10386 10385 10383 10383 10382 10381 10380 10379 10378 10378 10377 10377 10377 10377 10377
10446 10446 10448 10448 10448 10447 10446 10445 10444 10442 10440 10439 10438 10438 10438 10437 10438 10439 10440 10440 10440 10440 10441 10441 10439 10437 10436 10436 10435 10433 10431 10428 10427 10426 10426 10425 10425 10425 10423 10421 10420 10419 10419 10418 10418 10417 10416 10416 10415 10413 10412 10410 10409 10407 10405 10404 10402 10401 10399 10398 10396 10395 10393 10392 10391 10390 10388 10387 10385 10384 10383 10381 10380 10379 10378 10378 10376 10376 10375 10375 10374 10373 10373 10373 10373 10373
10435 10435 10436 10436 10436 10435 10435 10434 10433 10431 10430 10428 10428 10428 10428 10428 10428 10429 10430 10431 10431 10431 10433 10432 10431 10430 10428 10428 10426 10425 10423 10421 10420 10419 10418 10418 10418 10418 10417 10415 10413 10412 10412 10411 10411 10410 10410 10410 10408 10407 10406 10405 10403 10401 10400 10398 10396 10395 10393 10392 10391 10390 10388 10386 10385 10384 10383 10381 10380 10380 10378 10376 10375 10375 10374 10373 10373 10372 10371 10371 10370 10370 10370 10370 10370 10370
10425 10425 10426 10425 10425 10425 10424 10424 10423 10421 10420 10419 10419 10419 10419 10419 10419 10420 10421 10422 10422 10423 10424 10423 10423 10421 10420 10420 10419 10418 10416 10414 10413 10412 10412 10411 10411 10411 10411 10409 10407 10406 10405 10405 10405 10405 10404 10403 10403 10401 10400 10399 10397 10396 10394 10393 10391 10390 10388 10386 10385 10384 10383 10381 10380 10379 10378 10376 10376 10375 10373 10372 10371 10370 10370 10369 10368 10368 10367 10367 10366 10366 10366 10366 10367 10367
10416 10416 10416 10416 10415 10415 10415 10415 10414 10413 10411 10411 10410 10410 10410 10410 10411 10411 10413 10413 10413 10414 10415 10415 10415 10414 10412 10411 10410 10410 10410 10408 10406 10405 10406 10405 10405 10404 10405 10403 10401 10399 10399 10399 10398 10398 10398 10398 10397 10396 10395 10393 10391 10390 10388 10387 10386 10384 10383 10381 10380 10379 10377 10376 10375 10374 10373 10371 10371 10370 10369 10368 10366 10366 10366 10365 10365 10364 10363 10363 10363 10363 10363 10363 10363 10364
10408 10408 10408 10408 10406 10406 10406 10406 10406 10405 10404 10403 10402 10402 10402 10402 10403 10403 10404 10404 10405 10405 10405 10406 10406 10406 10405 10403 10401 10401 10403 10401 10400 10399 10399 10398 10398 10398 10398 10396 10395 10393 10393 10393 10393 10392 10392 10391 10391 10390 10389 10388 10386 10385 10383 10382 10380 10379 10377 10376 10375 10373 10372 10371 10370 10369 10368 10366 10366 10365 10364 10363 10362 10361 10361 10361 10361 10360 10360 10360 10360 10360 10360 10360 10360 10361
10400 10400 10400 10399 10398 10398 10398 10398 10398 10397 10396 10395 10395 10395 10395 10394 10395 10395 10396 10396 10396 10397 10398 10398 10398 10397 10397 10396 10395 10395 10396 10395 10393 10392 10392 10391 10391 10391 10391 10390 10388 10387 10387 10386 10386 10386 10386 10385 10385 10384 10383 10381 10380 10379 10378 10376 10375 10373 10372 10371 10370 10368 10367 10366 10365 10364 10363 10362 10361 10360 10360 10359 10358 10358 10357 10357 10356 10356 10356 10356 10356 10356 10356 10357 10357 10358
10391 10391 10391 10391 10390 10390 10390 10390 10390 10390 10389 10388 10387 10387 10386 10386 10387 10388 10388 10388 10389 10389 10390 10390 10390 10389 10389 10389 10388 10388 10389 10389 10388 10386 10385 10385 10385 10385 10385 10383 10382 10381 10380 10380 10380 10380 10380 10379 10378 10378 10376 10376 10375 10373 10372 10371 10370 10368 10366 10365 10364 10363 10362 10361 10360 10359 10358 10357 10356 10356 10355 10355 10354 10353 10353 10353 10353 10353 10353 10353 10353 10353 10353 10354 10354 10355
10384 10383 10381 10382 10383 10383 10381 10381 10381 10381 10381 10380 10380 10380 10379 10379 10380 10380 10380 10381 10381 10381 10381 10382 10381 10381 10381 10381 10381 10381 10382 10382 10381 10380 10379 10379 10378 10378 10378 10377 10376 10375 10374 10374 10374 10374 10373 10372 10371 10371 10370 10370 10369 10368 10366 10365 10364 10363 10361 10360 10359 10358 10357 10356 10355 10354 10353 10353 10352 10351 10351 10350 10350 10350 10350 10350 10349 10349 10349 10349 10350 10350 10350 10351 10351 10351
10376 10375 10373 10373 10375 10375 10374 10373 10373 10373 10373 10373 10372 10371 10371 10371 10372 10372 10372 10373 10374 10374 10374 10374 10373 10374 10375 10375 10374 10375 10375 10375 10375 10373 10373 10373 10371 10371 10371 10371 10370 10369 10368 10368 10368 10368 10367 10366 10366 10365 10365 10363 10363 10362 10361 10360 10358 10357 10356 10355 10354 10353 10352 10351 10350 10350 10349 10348 10348 10347 10346 10346 10346 10346 10346 10346 10346 10346 10346 10346 10346 10346 10347 10348 10348 10349
10369 10367 10366 10365 10366 10366 10366 10366 10366 10366 10366 10365 10365 10364 10364 10365 10365 10365 10365 10366 10366 10366 10366 10366 10366 10366 10367 10367 10368 10368 10368 10369 10368 10368 10367 10366 10365 10365 10366 10366 10365 10363 10363 10363 10363 10362 10361 10361 10360 10359 10358 10358 10357 10356 10355 10354 10353 10352 10351 10350 10349 10348 10347 10346 10346 10345 10344 10343 10343 10343 10343 10342 10342 10342 10342 10342 10342 10342 10343 10343 10343 10343 10344 10345 10345 10346
10361 10360 10358 10358 10358 10358 10358 10358 10358 10358 10358 10358 10357 10356 10357 10358 10358 10358 10358 10359 10359 10359 10359 10359 10359 10360 10360 10360 10361 10361 10361 10362 10362 10362 10361 10360 10359 10359 10360 10360 10359 10358 10357 10357 10357 10356 10356 10355 10355 10354 10353 10352 10351 10351 10350 10349 10348 10346 10346 10345 10344 10343 10342 10341 10341 10340 10340 10340 10339 10338 10338 10338 10338 10338 10338 10338 10339 10339 10339 10340 10340 10340 10341 10341 10342 10343
10353 10352 10351 10350 10350 10350 10350 10350 10351 10351 10350 10350 10350 10350 10350 10351 10351 10352 10352 10352 10352 10352 10351 10352 10352 10353 10353 10354 10354 10354 10354 10355 10356 10355 10355 10354 10353 10353 10353 10354 10353 10353 10351 10351 10351 10351 10350 10350 10349 10348 10348 10347 10346 10345 10345 10343 10343 10341 10341 10340 10339 10338 10338 10337 10336 10336 10335 10335 10335 10335 10335 10335 10335 10335 10335 10335 10335 10336 10336 10336 10337 10338 10338 10339 10340 10340
10345 10345 10343 10343 10343 10342 10343 10343 10343 10343 10343 10343 10342 10342 10343 10343 10345 10345 10345 10345 10345 10345 10345 10345 10345 10346 10346 10347 10347 10346 10347 10348 10349 10349 10348 10348 10347 10347 10347 10348 10348 10347 10346 10346 10346 10346 10345 10344 10343 10343 10343 10341 10341 10340 10339 10338 10337 10336 10336 10335 10334 10333 10333 10332 10332 10331 10331 10331 10331 10331 10331 10331 10331 10331 10331 10331 10332 10333 10333 10333 10334 10335 10335 10336 10337 10338
10337 10336 10336 10335 10335 10334 10335 10335 10335 10335 10335 10335 10335 10335 10336 10336 10337 10337 10336 10336 10337 10338 10338 10338 10338 10339 10340 10340 10340 10340 10341 10342 10342 10342 10342 10342 10341 10341 10341 10342 10343 10341 10341 10340 10340 10340 10340 10338 10338 10337 10337 10336 10335 10335 10334 10333 10333 10331 10331 10330 10330 10329 10328 10328 10328 10327 10327 10327 10327 10327 10327 10327 10327 10328 10328 10328 10329 10329 10330 10330 10331 10331 10332 10333 10334 10335
10329 10328 10328 10327 10326 10326 10326 10326 10327 10327 10327 10327 10328 10328 10328 10329 10330 10329 10328 10329 10330 10331 10331 10331 10331 10332 10333 10333 10333 10333 10335 10335 10335 10335 10336 10336 10335 10335 10335 10336 10336 10336 10336 10335 10335 10335 10334 10333 10333 10332 10331 10331 10330 10330 10329 10328 10328 10327 10326 10326 10325 10325 10324 10323 10323 10323 10323 10323 10323 10323 10323 10323 10324 10324 10325 10325 10325 10326 10326 10327 10328 10329 10330 10330 10331 10332
10321 10320 10320 10319 10318 10318 10318 10318 10318 10319 10320 10320 10320 10320 10321 10321 10321 10321 10321 10322 10323 10324 10324 10324 10325 10326 10326 10326 10326 10327 10328 10328 10328 10330 10330 10330 10330 10329 10330 10331 10331 10330 10330 10330 10329 10329 10328 10328 10328 10327 10326 10325 10325 10325 10324 10323 10323 10322 10321 10321 10320 10320 10320 10319 10319 10319 10319 10319 10319 10320 10320 10320 10320 10321 10321 10322 10323 10323 10324 10325 10325 10326 10326 10327 10328 10329
10312 10312 10311 10310 10310 10310 10310 10310 10310 10310 10311 10312 10313 10313 10313 10314 10314 10314 10315 10315 10316 10316 10316 10318 10318 10319 10319 10320 10320 10321 10321 10321 10322 10323 10325 10324 10323 10323 10325 10325 10325 10325 10325 10325 10324 10323 10322 10323 10323 10322 10321 10320 10320 10320 10319 10318 10318 10318 10317 10316 10316 10316 10315 10315 10315 10315 10315 10315 10316 10316 10316 10316 10317 10318 10318 10319 10320 10320 10321 10321 10322 10323 10324 10325 10325 10326
10303 10303 10302 10301 10301 10301 10301 10301 10301 10302 10303 10304 10305 10305 10306 10306 10306 10307 10308 10308 10309 10310 10310 10311 10311 10312 10313 10313 10314 10314 10314 10315 10316 10318 10318 10318 10318 10318 10319 10319 10319 10319 10320 10320 10318 10317 10316 10316 10317 10317 10316 10315 10315 10315 10314 10314 10313 10313 10313 10312 10312 10311 10311 10311 10311 10311 10311 10312 10312 10313 10313 10313 10314 10315 10315 10316 10316 10317 10318 10319 10320 10320 10321 10321 10323 10323
10294 10294 10293 10292 10291 10291 10292 10293 10293 10294 10295 10296 10297 10298 10298 10298 10299 10300 10300 10301 10302 10303 10304 10305 10305 10305 10306 10306 10307 10308 10308 10308 10310 10311 10313 10312 10311 10312 10313 10313 10313 10313 10314 10314 10313 10312 10311 10311 10311 10311 10311 10310 10310 10310 10310 10309 10309 10308 10308 10308 10308 10307 10307 10307 10308 10308 10308 10308 10309 10309 10310 10310 10311 10311 10312 10313 10313 10315 10315 10316 10316 10317 10318 10319 10320 10321
10285 10284 10283 10283 10282 10282 10283 10284 10285 10286 10287 10288 10290 10290 10291 10291 10291 10292 10293 10294 10295 10296 10297 10298 10298 10298 10299 10300 10301 10301 10302 10303 10304 10305 10306 10306 10306 10306 10308 10308 10308 10308 10308 10308 10308 10308 10307 10306 10306 10306 10306 10305 10305 10305 10305 10305 10305 10304 10304 10303 10303 10303 10303 10303 10304 10304 10305 10305 10305 10306 10306 10307 10308 10308 10310 10310 10311 10311 10312 10313 10314 10315 10315 10316 10317 10318
10275 10274 10273 10273 10273 10273 10274 10276 10277 10278 10279 10280 10281 10282 10283 10283 10285 10285 10286 10287 10288 10290 10290 10291 10291 10292 10293 10294 10295 10295 10296 10296 10298 10300 10301 10301 10301 10301 10302 10303 10303 10303 10303 10303 10303 10303 10302 10301 10301 10301 10300 10300 10300 10300 10300 10300 10300 10300 10300 10300 10300 10300 10300 10300 10300 10301 10301 10301 10302 10303 10303 10304 10305 10306 10306 10307 10308 10309 10310 10310 10311 10311 10313 10313 10315 10315
10265 10264 10263 10263 10263 10265 10266 10267 10269 10270 10271 10273 10273 10274 10275 10276 10277 10278 10279 10280 10281 10283 10283 10284 10285 10286 10286 10288 10288 10289 10290 10291 10293 10294 10295 10295 10295 10296 10296 10297 10297 10298 10298 10297 10297 10297 10297 10296 10296 10296 10296 10295 10295 10296 10296 10296 10296 10296 10295 10295 10296 10296 10296 10296 10296 10297 10298 10298 10299 10300 10300 10301 10302 10303 10303 10305 10305 10306 10307 10308 10308 10309 10310 10311 10311 10313
10255 10254 10253 10253 10255 10256 10258 10260 10261 10262 10263 10265 10266 10266 10268 10268 10270 10271 10272 10274 10275 10276 10276 10278 10278 10280 10281 10281 10282 10283 10283 10285 10287 10288 10289 10290 10290 10291 10291 10291 10292 10293 10293 10292 10292 10292 10291 10291 10291 10291 10291 10291 10291 10291 10291 10291 10291 10291 10291 10291 10291 10292 10292 10293 10293 10294 10295 10295 10296 10296 10298 10298 10299 10300 10301 10301 10303 10303 10304 10305 10306 10306 10307 10308 10309 10310
10245 10244 10243 10245 10246 10249 10250 10251 10253 10255 10256 10256 10258 10259 10260 10261 10263 10264 10266 10267 10268 10269 10270 10271 10272 10273 10275 10275 10276 10277 10278 10280 10281 10282 10283 10285 10285 10286 10286 10286 10287 10288 10288 10287 10286 10286 10286 10286 10286 10286 10286 10286 10286 10286 10287 10287 10288 10288 10288 10288 10288 10288 10289 10290 10290 10291 10291 10292 10293 10294 10295 10295 10296 10297 10298 10299 10300 10301 10301 10302 10303 10304 10305 10306 10306 10308
10236 10235 10235 10236 10239 10241 10241 10243 10245 10246 10248 10249 10250 10251 10253 10255 10256 10257 10259 10260 10261 10262 10263 10265 10266 10267 10268 10270 10270 10271 10273 10274 10275 10276 10278 10279 10280 10280 10281 10281 10282 10283 10283 10282 10282 10281 10281 10281 10281 10281 10282 10282 10283 10283 10283 10283 10283 10283 10284 10284 10285 10285 10286 10286 10287 10288 10288 10289 10290 10291 10291 10293 10293 10295 10295 10296 10297 10298 10299 10300 10301 10301 10302 10303 10304 10305
10226 10226 10228 10229 10231 10233 10234 10235 10236 10238 10240 10241 10243 10245 10246 10248 10249 10250 10251 10253 10254 10255 10257 10258 10260 10261 10263 10263 10265 10266 10267 10268 10270 10271 10273 10274 10275 10275 10276 10276 10276 10277 10278 10278 10277 10277 10277 10277 10277 10277 10278 10278 10278 10278 10279 10279 10280 10280 10280 10281 10281 10282 10283 10283 10284 10285 10285 10286 10287 10288 10289 10290 10291 10291 10293 10293 10295 10295 10296 10297 10298 10299 10300 10301 10302 10303
10217 10218 10220 10221 10223 10225 10226 10228 10229 10231 10233 10235 10236 10238 10240 10241 10242 10243 10245 10246 10248 10249 10251 10252 10254 10255 10256 10258 10259 10260 10262 10263 10265 10266 10268 10268 10269 10270 10271 10271 10271 10272 10273 10273 10273 10272 10272 10273 10273 10273 10273 10273 10274 10274 10275 10275 10276 10276 10277 10278 10278 10278 10280 10280 10281 10281 10283 10283 10285 10285 10286 10287 10288 10289 10290 10291 10291 10292 10293 10295 10295 10296 10298 10298 10300 10300
10209 10211 10212 10214 10217 10219 10219 10220 10221 10224 10226 10228 10230 10231 10232 10233 10235 10236 10238 10240 10241 10243 10245 10246 10248 10250 10251 10252 10253 10255 10256 10258 10260 10261 10262 10263 10264 10265 10266 10266 10267 10267 10268 10268 10268 10268 10268 10268 10268 10269 10269 10270 10270 10270 10271 10271 10272 10273 10273 10274 10275 10275 10276 10277 10278 10279 10280 10281 10281 10283 10283 10285 10285 10286 10287 10288 10289 10290 10291 10292 10293 10294 10295 10296 10297 10298
10200 10203 10205 10207 10209 10211 10211 10213 10215 10218 10220 10221 10223 10224 10225 10226 10228 10230 10231 10233 10235 10237 10239 10241 10242 10243 10245 10246 10248 10250 10251 10253 10255 10256 10257 10258 10259 10260 10261 10261 10262 10263 10263 10263 10263 10263 10263 10264 10265 10265 10265 10266 10266 10266 10267 10268 10268 10270 10270 10271 10271 10273 10273 10275 10275 10276 10277 10278 10278 10280 10281 10281 10282 10283 10284 10285 10286 10287 10288 10289 10290 10291 10293 10293 10295 10295
10193 10195 10197 10199 10201 10202 10204 10206 10209 10211 10213 10215 10215 10216 10218 10220 10221 10223 10225 10227 10229 10231 10233 10235 10236 10238 10240 10241 10243 10245 10246 10248 10250 10251 10252 10253 10255 10255 10256 10256 10257 10258 10258 10258 10259 10259 10260 10260 10260 10261 10261 10262 10263 10263 10263 10264 10265 10266 10267 10268 10269 10270 10270 10271 10272 10273 10274 10275 10276 10276 10278 10278 10280 10280 10281 10283 10283 10285 10286 10286 10288 10289 10290 10291 10292 10293
10186 10188 10190 10192 10193 10195 10198 10200 10202 10204 10206 10207 10208 10210 10211 10213 10215 10217 10220 10221 10223 10226 10228 10229 10231 10233 10235 10236 10238 10240 10242 10243 10245 10246 10248 10248 10250 10250 10251 10252 10253 10253 10254 10254 10255 10255 10255 10256 10256 10257 10258 10258 10259 10260 10260 10261 10261 10263 10263 10265 10266 10266 10267 10268 10270 10270 10271 10272 10273 10274 10275 10276 10277 10278 10279 10280 10281 10282 10283 10284 10285 10286 10287 10288 10289 10290
10178 10180 10182 10185 10186 10188 10191 10193 10195 10197 10199 10200 10202 10203 10205 10207 10210 10211 10214 10216 10218 10220 10222 10224 10226 10228 10229 10231 10233 10235 10237 10238 10240 10241 10243 10244 10245 10246 10246 10247 10248 10249 10250 10250 10250 10251 10251 10252 10253 10253 10254 10255 10255 10256 10256 10258 10258 10260 10261 10261 10263 10264 10265 10266 10266 10267 10268 10269 10270 10271 10272 10273 10274 10275 10276 10277 10278 10280 10280 10281 10283 10283 10285 10285 10286 10287
10171 10173 10175 10177 10180 10182 10184 10186 10188 10191 10193 10194 10196 10198 10200 10201 10204 10206 10208 10210 10213 10215 10216 10218 10221 10223 10224 10226 10228 10231 10232 10234 10235 10236 10238 10240 10241 10241 10242 10243 10243 10244 10245 10246 10246 10247 10248 10248 10249 10250 10250 10251 10252 10253 10253 10255 10255 10256 10258 10259 10260 10261 10261 10263 10263 10265 10265 10266 10267 10268 10270 10270 10271 10272 10273 10274 10275 10276 10278 10279 10280 10281 10281 10283 10283 10285
10163 10165 10168 10170 10173 10175 10178 10180 10182 10184 10186 10188 10190 10191 10193 10196 10198 10200 10203 10205 10207 10210 10211 10214 10216 10218 10220 10222 10224 10226 10228 10229 10231 10232 10234 10235 10236 10237 10238 10238 10239 10240 10241 10241 10242 10243 10244 10245 10245 10246 10247 10248 10248 10250 10250 10251 10253 10254 10255 10256 10257 10258 10259 10260 10260 10261 10263 10263 10265 10266 10266 10268 10268 10270 10270 10271 10273 10274 10275 10276 10277 10278 10279 10280 10281 10281
10156 10158 10161 10163 10166 10169 10171 10173 10175 10177 10179 10181 10183 10186 10188 10190 10193 10195 10197 10200 10202 10205 10207 10209 10211 10213 10215 10217 10220 10221 10223 10225 10226 10228 10230 10231 10232 10233 10233 10234 10235 10236 10236 10238 10238 10240 10240 10241 10242 10243 10243 10245 10245 10246 10247 10248 10250 10251 10252 10253 10254 10255 10256 10256 10258 10259 10260 10261 10262 10263 10264 10265 10266 10266 10268 10269 10270 10271 10272 10273 10274 10275 10276 10277 10278 10278
10150 10151 10154 10156 10159 10162 10165 10166 10168 10171 10173 10176 10178 10180 10183 10185 10188 10190 10193 10195 10198 10200 10202 10205 10206 10209 10211 10213 10215 10217 10219 10220 10222 10223 10225 10226 10228 10228 10230 10230 10231 10231 10233 10234 10235 10236 10236 10238 10238 10239 10240 10241 10242 10243 10245 10246 10247 10248 10249 10250 10251 10252 10253 10254 10255 10256 10257 10258 10259 10260 10261 10262 10263 10264 10265 10266 10267 10268 10269 10270 10271 10272 10273 10274 10275 10275
10143 10145 10148 10151 10154 10156 10159 10161 10163 10166 10168 10170 10173 10175 10178 10180 10183 10186 10188 10191 10193 10195 10198 10200 10203 10205 10206 10208 10211 10213 10215 10216 10218 10220 10221 10223 10223 10225 10225 10226 10227 10228 10229 10230 10231 10232 10233 10234 10235 10236 10237 10238 10240 10240 10241 10243 10244 10245 10246 10247 10248 10249 10250 10251 10252 10253 10255 10255 10256 10257 10258 10259 10260 10261 10262 10263 10264 10265 10266 10267 10268 10269 10270 10271 10271 10272
10138 10140 10143 10146 10149 10151 10154 10156 10158 10160 10163 10165 10168 10171 10173 10176 10178 10181 10184 10186 10189 10191 10194 10196 10198 10200 10202 10205 10206 10208 10210 10212 10214 10215 10217 10218 10220 10220 10221 10222 10223 10224 10225 10226 10228 10228 10230 10231 10232 10233 10234 10235 10236 10238 10239 10240 10241 10242 10243 10244 10245 10246 10247 10248 10250 10251 10251 10253 10253 10255 10255 10256 10257 10258 10260 10260 10261 10262 10263 10264 10265 10266 10267 10268 10269 10270